{"data":{"norad_id":68740,"intl_designator":"2026-082N","name":"STARLINK-37314","alt_names":[],"object_type":"PAYLOAD","status":"ACTIVE","operator":null,"country":"US","launch_date":"2026-04-15","launch_site_code":"AFWTR","launch_vehicle":null,"mission":null,"orbit_class":"UNKNOWN","rcs_meters":null,"size_class":null,"mass_kg":null,"dimensions":null,"purposes":["comms"],"wikipedia_slug":null,"has_3d_model":false,"image_url":null,"decayed_at":null,"tle_current":{"epoch":"2026-09-19T21:34:37.743744Z","epoch_age_seconds":93266,"freshness":"FRESH","line1":"1 68740U 26082N   26262.89904796  .00018043  00000+0  55961-3 0  9997","line2":"2 68740  97.2865 125.0618 0002185  93.0714 267.0778 15.33458621 24211","mean_motion":15.33458621,"eccentricity":0.0002185,"inclination_deg":97.2865,"raan_deg":125.0618,"arg_perigee_deg":93.0714,"mean_anomaly_deg":267.0778,"bstar":0.00055961,"rev_number":2421,"period_min":93.905370531677,"perigee_km":464.00731300216,"apogee_km":466.99798352845,"semimajor_km":6843.6396482653,"source":"CELESTRAK","updated_at":"2026-09-20T09:00:43.993378Z"}}}